User: anonymous   Login
Location: Sun City Center
(27.6996°N, 82.3528°W)
Time: 13:10:33
(UTC-05:00)
Language:

Cosmos 2084 Rocket - Orbit

View from above orbital plane
View from above orbital plane
View from above satellite
View from above satellite

Ground track
Ground track

The orbit data is extracted from the following two-line orbital elements,

1 20666U 90055D   17019.75571474  .00000110  00000-0  27099-4 0  9990
2 20666  62.7841 282.6819 0136313  94.5537 267.1142 14.91814163439036
Epoch (UTC): 19 January 2017 18:08:13
Eccentricity: 0.0136313
inclination: 62.7841°
perigee height: 497 km
apogee height: 687 km
right ascension of ascending node: 282.6819°
argument of perigee: 94.5537°
revolutions per day: 14.91814163
mean anomaly at epoch: 267.1142°
orbit number at epoch: 43903

The dashed part of the orbit path shows where the satellite is in the earth's shadow,  

DLR